Theta_e
314 313 313 314 314 315 314 314 313 315 316 316 316 316 317 318 318 317 317 326 329 331 333 336 337 340 342 343 344 346 346 347 347 347 347 346 347 348 348 348 347 346 346
312 313 313 314 313 315 315 313 313 316 316 314 315 316 317 317 318 318 317 318 326 328 330 332 336 336 339 341 342 342 344 345 346 347 345 345 346 347 347 346 345 344 345
313 314 313 313 313 314 315 313 314 315 315 314 314 315 317 319 318 317 317 318 319 323 327 330 333 333 337 339 341 342 342 344 343 344 345 343 344 345 346 345 343 344 344
314 314 312 313 314 313 313 313 313 314 313 313 313 315 317 318 318 317 317 317 318 317 319 326 329 334 335 338 340 341 343 343 344 343 342 344 345 345 345 346 345 344 344
316 313 313 314 315 311 312 313 314 313 312 313 313 316 316 316 315 316 316 316 316 318 317 319 326 330 335 337 337 339 341 343 342 343 344 344 344 344 343 344 345 344 344
317 315 314 314 314 313 312 312 312 312 312 313 312 314 313 314 314 314 315 315 317 317 318 318 318 320 327 334 335 336 338 341 342 342 343 342 342 341 340 341 342 343 344
317 316 314 313 314 312 313 313 312 312 312 312 311 312 312 312 312 314 314 314 317 315 317 318 319 320 320 326 335 337 334 336 338 341 342 341 341 340 340 340 339 339 342
316 315 314 314 314 312 312 312 311 311 311 312 312 307 305 308 310 312 313 314 314 314 316 317 317 319 322 324 326 332 336 334 335 337 338 339 340 340 341 339 338 339 340
317 316 316 314 313 313 312 312 311 310 310 311 313 312 305 302 306 310 311 312 313 313 314 315 316 318 320 323 325 328 333 334 333 332 336 338 338 337 338 340 339 339 338
316 317 317 316 315 314 312 312 313 312 310 310 310 312 311 310 307 305 310 312 313 313 315 314 315 316 318 321 324 327 329 333 333 331 334 335 334 334 336 338 339 338 337
315 317 318 317 316 314 314 313 312 311 310 311 310 311 310 309 309 307 305 310 313 313 314 314 315 315 317 319 321 323 327 332 333 331 331 330 332 333 335 336 338 338 337
313 315 316 315 316 314 313 313 313 311 310 310 311 310 311 310 308 305 305 307 309 312 313 315 314 315 316 317 319 322 325 327 329 328 329 330 331 330 331 334 335 337 338
311 313 314 314 314 315 314 314 312 311 311 310 311 311 311 311 312 309 307 307 307 311 311 313 313 315 315 316 318 321 324 327 327 326 327 327 329 330 330 332 333 336 336
311 313 314 315 314 314 314 314 312 313 312 312 311 310 311 311 310 310 310 309 306 309 311 310 314 315 316 316 316 319 322 325 326 324 324 324 326 327 329 330 332 329 332
311 313 314 315 315 314 314 313 313 313 312 312 312 311 310 311 311 310 310 311 309 302 305 308 312 316 317 318 317 319 321 323 326 324 324 324 324 326 325 324 324 325 326
310 310 311 312 314 315 314 314 313 313 311 311 311 310 310 311 312 311 310 310 310 308 305 310 311 315 316 316 318 320 320 321 323 323 325 323 323 323 324 322 324 325 326
310 310 312 312 313 314 314 313 313 313 312 312 312 312 314 312 312 312 311 310 308 309 306 311 313 315 314 316 318 320 320 322 322 323 324 322 321 321 321 321 321 322 322
310 310 311 312 313 313 313 313 313 314 313 312 313 315 314 312 311 312 311 311 311 311 308 306 312 310 313 316 316 318 321 323 322 323 323 321 319 318 319 319 319 319 319
309 311 312 312 312 313 314 314 315 314 313 312 313 313 313 310 311 312 312 312 313 312 311 309 310 312 311 316 318 320 321 322 324 323 321 320 318 318 318 318 317 317 315
308 311 313 311 312 314 315 315 314 314 312 312 312 313 313 310 310 311 312 312 311 309 310 309 309 309 311 314 317 313 311 318 318 321 321 320 319 318 317 318 318 317 314
308 312 313 313 311 311 313 314 314 314 312 311 313 314 314 312 315 316 313 310 310 309 310 308 308 309 310 312 312 313 311 312 311 316 314 316 319 319 318 318 320 318 313
307 308 311 311 313 312 309 310 313 312 311 311 311 313 314 314 311 313 314 313 313 310 310 309 311 310 311 312 313 313 313 311 307 313 314 309 316 315 318 320 313 311 310
306 306 308 310 311 312 307 306 309 313 310 312 313 314 312 312 313 314 313 313 312 312 313 314 313 312 311 313 312 309 307 310 310 310 312 307 313 313 315 315 310 309 308
303 304 307 310 310 312 306 304 305 312 311 310 313 313 312 308 309 312 314 311 310 311 315 315 315 315 316 315 313 311 310 308 309 308 309 308 310 312 313 315 309 308 307
305 306 310 311 311 312 306 303 305 310 309 310 311 313 311 311 302 304 313 308 308 310 308 306 306 305 304 305 310 311 308 308 305 306 310 308 307 307 309 310 312 308 306
305 309 308 310 310 310 305 301 306 311 308 308 309 311 308 311 301 303 313 309 306 308 311 311 312 310 310 309 307 315 312 310 309 308 312 313 310 313 312 316 311 312 312
Wind_Speed
3 3 3 2 2 2 1 2 3 3 3 4 4 4 5 6 6 4 4 12 11 10 9 6 3 6 7 10 10 10 12 12 13 13 14 14 15 15 15 14 14 14 12
4 4 3 3 3 2 1 2 3 2 3 3 5 5 6 5 6 5 4 5 11 11 10 9 8 7 9 12 13 13 13 13 13 14 16 17 15 15 16 15 15 16 15
6 5 3 4 3 2 3 2 3 2 3 3 4 5 4 5 5 6 5 4 6 9 10 10 10 10 12 12 12 13 15 14 15 14 15 17 16 15 16 17 18 17 16
6 4 3 4 3 2 2 3 2 2 3 3 4 5 5 6 7 6 5 5 4 4 6 11 10 11 13 13 14 13 13 14 15 16 17 17 17 17 18 19 19 18 17
5 5 4 5 3 3 3 2 2 2 2 4 4 5 6 6 6 5 4 4 4 4 3 7 11 12 12 13 14 15 15 13 15 16 17 17 19 18 19 20 20 19 18
6 6 4 5 3 3 3 3 3 1 3 3 4 6 6 5 4 3 3 3 2 4 3 4 4 5 12 14 16 16 16 14 15 17 17 17 19 20 19 20 19 18 19
5 5 4 4 3 4 4 3 2 2 2 1 3 3 4 3 3 1 1 0 1 5 4 4 3 3 5 12 15 17 18 17 15 15 14 16 18 20 22 25 19 16 19
5 5 5 5 5 4 5 4 4 2 2 2 1 0 4 3 2 3 1 1 1 3 3 4 6 6 5 5 9 15 19 19 18 14 13 13 14 18 21 23 23 25 22
6 7 7 6 6 5 5 4 4 5 3 2 4 2 2 2 3 2 2 3 4 4 4 5 6 7 7 6 9 11 17 17 18 15 13 9 10 15 19 20 24 24 21
8 6 7 8 7 4 6 5 4 4 3 4 1 4 4 2 2 4 2 3 5 5 7 5 5 7 8 6 10 13 16 15 18 16 14 12 13 15 16 19 23 22 21
6 8 5 5 7 5 5 6 4 5 4 3 3 2 3 3 5 5 8 6 5 3 6 7 6 6 8 7 6 8 15 14 14 13 11 10 12 13 13 16 20 22 20
6 7 8 6 7 6 7 6 7 6 6 5 4 4 4 3 3 4 6 6 9 9 7 7 8 5 6 7 10 13 12 13 11 11 10 9 11 12 12 14 17 21 23
5 7 5 6 5 5 5 5 5 6 6 4 5 5 5 6 4 3 4 6 6 5 4 5 5 3 3 5 8 14 13 11 10 9 9 8 10 10 9 14 14 17 22
6 8 8 6 6 5 5 9 5 5 5 6 7 6 4 6 5 5 5 4 5 5 3 6 2 2 1 3 9 16 9 11 9 9 8 9 10 9 10 6 10 2 11
5 8 8 8 7 7 9 10 7 5 4 5 6 5 5 5 5 5 6 6 5 6 6 2 3 4 3 5 8 8 7 10 9 8 9 8 8 11 9 4 9 4 9
6 8 10 9 9 10 10 7 5 4 4 5 4 6 6 5 5 4 5 5 6 6 4 3 3 4 5 5 6 7 7 7 6 6 9 9 9 11 8 12 11 16 12
8 9 9 10 10 8 6 6 5 4 6 5 6 7 7 5 4 4 5 5 6 5 6 4 2 2 4 6 2 2 3 4 3 8 11 11 9 9 15 16 16 20 22
9 9 10 11 9 7 5 6 5 5 6 6 7 6 6 2 5 5 4 6 5 6 4 6 1 2 2 3 2 5 4 2 4 8 9 11 9 13 17 17 16 17 18
9 10 9 10 8 7 7 6 5 4 3 6 5 4 4 3 4 3 2 4 3 2 3 3 2 1 1 1 3 4 4 5 4 8 10 9 15 18 16 14 14 17 16
9 9 8 6 7 6 7 7 4 4 2 5 5 4 4 3 3 4 2 1 0 2 3 2 1 1 1 1 2 4 5 4 6 7 8 8 14 19 16 13 12 16 15
8 8 7 5 5 5 4 5 3 2 5 5 6 2 4 2 4 2 1 0 3 3 3 4 3 1 1 1 3 2 4 7 7 4 8 5 8 7 7 8 11 14 13
9 7 7 6 6 5 7 9 6 4 7 5 4 3 1 1 2 6 5 4 6 1 3 4 3 6 2 3 4 3 7 7 5 5 6 5 5 6 6 5 10 12 12
8 8 8 7 7 5 8 9 8 5 4 4 4 4 2 3 0 4 4 6 8 2 3 1 6 5 5 3 3 3 4 5 5 3 5 4 4 6 5 6 9 10 9
8 7 7 7 6 5 8 8 8 5 4 4 4 2 4 1 1 5 3 3 5 5 3 3 4 5 6 6 4 3 5 6 6 4 2 4 1 3 2 2 3 8 10
8 6 6 7 6 6 6 7 8 5 4 5 2 3 4 3 2 4 4 1 5 7 8 9 9 10 9 8 6 6 7 8 3 2 1 4 3 3 3 3 4 7 8
9 5 7 4 6 6 4 7 8 5 5 3 2 3 6 3 5 3 3 3 4 2 5 6 6 7 7 6 6 4 5 6 4 2 2 3 4 3 4 2 5 6 6
Wind_Direction
257 264 269 273 307 316 19 345 341 336 341 340 342 342 332 325 323 319 320 325 323 318 320 307 239 233 224 223 230 225 228 229 221 218 212 205 199 196 198 189 188 184 184
235 243 254 258 275 277 293 314 304 310 309 318 322 327 316 304 305 304 309 314 326 318 309 288 256 248 228 225 229 229 225 227 227 220 218 211 206 194 195 195 194 194 192
227 244 272 285 258 272 286 283 291 295 297 303 287 300 298 292 292 301 297 291 307 311 296 292 274 261 248 230 230 224 224 225 226 225 227 220 206 201 197 201 205 203 200
222 229 245 252 268 271 285 290 277 268 272 280 297 303 298 295 289 283 286 290 284 285 294 283 278 276 251 247 234 237 225 221 225 227 230 225 216 206 203 203 206 207 202
227 215 223 250 256 256 264 260 261 242 281 294 301 287 289 288 290 293 283 297 313 308 283 282 288 277 266 243 242 244 239 221 231 226 225 224 224 221 216 216 208 206 205
239 218 226 242 239 253 252 241 252 265 257 272 291 292 285 287 291 263 256 309 21 14 349 317 305 293 285 265 248 247 245 235 225 231 229 230 229 223 225 232 225 217 216
249 223 221 239 230 233 238 221 239 254 280 256 311 302 290 292 256 281 341 278 306 342 355 358 346 306 289 284 276 242 248 248 237 239 232 232 232 229 221 217 219 231 231
257 235 221 229 227 236 235 226 202 224 241 229 249 351 331 329 351 273 295 321 304 343 328 328 322 310 295 281 265 266 242 244 250 240 235 234 236 239 232 224 215 216 228
277 240 236 221 223 211 234 221 202 195 225 261 207 196 286 269 318 314 234 274 279 306 296 314 310 301 290 276 275 258 253 239 247 252 250 231 237 246 244 236 226 219 225
281 266 245 243 227 208 222 222 195 215 180 224 254 221 243 219 264 308 240 277 285 295 290 283 278 286 282 267 268 262 252 244 229 241 245 255 245 246 248 243 235 225 218
286 281 257 258 251 220 226 212 201 207 206 205 202 204 225 225 237 251 293 301 294 278 291 281 275 269 268 259 254 260 256 242 219 223 234 252 266 260 252 248 235 226 219
290 273 266 242 245 225 219 208 211 210 208 212 224 215 215 205 209 217 247 270 285 308 290 281 281 266 258 258 246 248 250 249 221 213 214 224 241 254 253 248 244 228 209
303 296 265 258 256 253 251 256 209 212 198 199 210 226 218 227 220 220 246 265 264 281 274 260 265 280 286 271 261 258 261 232 224 209 205 216 235 234 240 232 229 225 213
280 285 283 260 259 236 253 259 242 227 192 215 215 218 240 238 210 214 225 240 264 250 250 259 291 246 266 280 256 256 252 256 213 194 193 215 224 222 213 241 229 283 219
274 283 276 264 247 234 216 227 228 224 203 219 228 229 236 248 231 228 224 226 240 286 294 254 275 218 302 291 264 244 235 240 233 194 210 202 210 184 194 169 112 130 188
282 288 286 279 256 232 220 223 220 203 215 227 227 238 243 246 244 237 228 218 225 243 261 223 244 295 309 300 276 218 219 224 229 211 201 169 192 175 161 117 117 94 122
294 288 284 284 269 251 224 211 221 215 218 241 232 233 248 228 245 240 214 212 223 219 246 272 257 286 305 328 288 151 199 207 214 184 172 162 187 174 145 132 122 112 109
300 288 287 286 267 245 234 218 217 224 218 236 248 240 256 219 255 249 224 226 224 218 231 266 254 310 305 308 164 129 127 159 182 183 153 164 169 142 149 137 138 129 126
303 301 293 287 267 249 226 213 196 223 238 243 239 248 245 227 273 275 271 256 248 237 226 241 240 272 276 291 116 112 116 100 111 131 136 155 129 128 128 127 125 131 129
296 297 296 281 278 255 224 209 197 213 278 252 245 239 237 228 280 294 275 306 312 290 232 200 169 234 278 18 89 112 83 96 99 103 98 112 118 116 119 121 132 135 141
297 290 296 285 265 262 247 212 190 245 243 250 242 283 227 223 284 278 131 344 324 287 260 180 140 130 44 34 61 67 108 97 60 80 96 79 101 115 126 116 132 141 140
305 297 295 289 276 238 225 209 211 216 235 213 226 231 17 105 13 23 92 327 290 245 61 116 130 142 113 87 75 72 109 114 89 16 81 45 94 96 105 105 116 119 128
304 302 290 288 290 274 219 201 196 216 208 222 209 203 78 69 350 86 96 340 348 53 36 79 129 133 127 116 97 82 60 70 90 86 83 71 61 95 84 94 109 119 122
313 302 288 279 284 279 214 203 202 212 177 204 242 73 92 174 102 136 90 354 32 41 98 70 106 122 125 120 113 94 112 100 92 79 66 94 56 96 113 121 132 142 152
311 296 299 296 275 297 238 202 174 178 171 195 183 219 179 172 143 184 130 126 41 57 69 80 74 91 109 117 129 118 111 120 104 121 164 112 153 117 157 180 190 187 169
300 297 311 312 302 306 266 199 172 153 155 187 168 208 204 194 160 240 181 145 86 62 111 94 91 94 134 137 128 110 150 119 117 125 180 110 148 158 152 158 175 178 188